This is the latest recevied weather packets stored in our database for station/object DL9GRB-13. If no packets are shown the sender has not sent any weather packets the latest 10 day(s).
| Time | Temp. | Humidity | Pressure | Rain* | Wind** | Luminosity | Snow |
|---|---|---|---|---|---|---|---|
| 1777189624 | 10.56° C | 36% | 1023.8 hPa | 0 mm | - | 399 W/m² | - |
| 1777189445 | 10.56° C | 39% | 1023.6 hPa | 0 mm | - | 398 W/m² | - |
| 1777189265 | 10.56° C | 37% | 1023.6 hPa | 0 mm | - | 393 W/m² | - |
| 1777189085 | 10° C | 37% | 1023.6 hPa | 0 mm | - | 387 W/m² | - |
| 1777188905 | 10° C | 37% | 1023.6 hPa | 0 mm | - | 380 W/m² | - |
| 1777188725 | 10° C | 36% | 1023.5 hPa | 0 mm | - | 372 W/m² | - |
| 1777188545 | 10° C | 37% | 1023.7 hPa | 0 mm | - | 365 W/m² | - |
| 1777188365 | 10° C | 38% | 1023.5 hPa | 0 mm | - | 357 W/m² | - |
| 1777188184 | 10.56° C | 37% | 1023.5 hPa | 0 mm | - | 352 W/m² | - |
| 1777188005 | 10° C | 39% | 1023.4 hPa | 0 mm | - | 345 W/m² | - |
| 1777187824 | 10° C | 38% | 1023.4 hPa | 0 mm | - | 336 W/m² | - |
| 1777187644 | 10° C | 41% | 1023.5 hPa | 0 mm | - | 328 W/m² | - |
| 1777187465 | 10° C | 43% | 1023.3 hPa | 0 mm | - | 320 W/m² | - |
| 1777187285 | 10° C | 44% | 1023.2 hPa | 0 mm | - | 313 W/m² | - |
| 1777187105 | 9.44° C | 45% | 1023.3 hPa | 0 mm | - | 304 W/m² | - |
| 1777186924 | 9.44° C | 45% | 1023.4 hPa | 0 mm | - | 298 W/m² | - |
| 1777186745 | 10° C | 45% | 1023.2 hPa | 0 mm | - | 290 W/m² | - |
| 1777186565 | 9.44° C | 46% | 1023.4 hPa | 0 mm | - | 282 W/m² | - |
| 1777186385 | 9.44° C | 48% | 1023.2 hPa | 0 mm | - | 273 W/m² | - |
| 1777186205 | 9.44° C | 51% | 1023.2 hPa | 0 mm | - | 265 W/m² | - |
| 1777186025 | 8.89° C | 50% | 1023.1 hPa | 0 mm | - | 255 W/m² | - |
| 1777185845 | 8.89° C | 50% | 1023.4 hPa | 0 mm | - | 245 W/m² | - |
| 1777185665 | 8.89° C | 49% | 1023.2 hPa | 0 mm | - | 234 W/m² | - |
| 1777185485 | 9.44° C | 50% | 1023 hPa | 0 mm | - | 222 W/m² | - |
| 1777185305 | 9.44° C | 51% | 1022.9 hPa | 0 mm | - | 210 W/m² | - |
* Rain latest hour (hover to see other rain measurements)
** Current wind speed in m/s (hover to see current wind gust speed)